FW9133 Weather Reports


time (UTC)temp
C
wind
direction
speed
KPH
gust
KPH
rain 1hr
cm
rain 24hr
cm
rain mn
cm
humidity
%
barometer
mb
20260504130604 13 157 3.2 9.7 0.00 0.00 0.00 50 1013.4
20260504120120 12 213 1.6 11.3 0.00 0.00 0.00 48 1013.9
20260504110559 10 275 1.6 9.7 0.00 0.00 0.00 50 1014.1
20260504110114 10 302 1.6 9.7 0.00 0.00 0.00 49 1014.0
20260504100559 10 215 1.6 6.4 0.00 0.00 0.00 47 1013.8
20260504100117 10 235 1.6 6.4 0.00 0.00 0.00 47 1013.8
20260504081558 10 265 1.6 4.8 0.00 0.00 0.00 50 1014.3
20260504081059 10 246 1.6 6.4 0.00 0.00 0.00 50 1014.2
20260504080603 9 234 1.6 6.4 0.00 0.00 0.00 50 1014.2
20260504060107 11 0 0.0 6.4 0.00 0.00 0.00 44 1014.6
20260504050559 11 233 1.6 6.4 0.00 0.00 0.00 44 1014.9
20260504045602 11 0 1.6 6.4 0.00 0.00 0.00 45 1014.9
20260504045059 11 240 1.6 6.4 0.00 0.00 0.00 44 1015.0
20260504044600 11 238 1.6 4.8 0.00 0.00 0.00 46 1015.0
20260504044100 10 275 1.6 4.8 0.00 0.00 0.00 46 1015.0
20260504043600 10 275 0.0 4.8 0.00 0.00 0.00 46 1015.0
20260504043116 10 271 0.0 6.4 0.00 0.00 0.00 46 1015.0
20260504042600 10 267 0.0 6.4 0.00 0.00 0.00 45 1014.9
20260504042059 10 271 1.6 6.4 0.00 0.00 0.00 45 1014.9
20260504041600 10 240 1.6 4.8 0.00 0.00 0.00 45 1014.9
20260504041059 10 0 0.0 3.2 0.00 0.00 0.00 46 1014.8
20260504040559 10 263 0.0 4.8 0.00 0.00 0.00 45 1014.7
20260504035559 10 0 1.6 6.4 0.00 0.00 0.00 45 1014.8
20260504035102 10 244 1.6 6.4 0.00 0.00 0.00 43 1014.8
20260504034601 10 231 1.6 6.4 0.00 0.00 0.00 42 1014.7
20260504034101 10 232 1.6 6.4 0.00 0.00 0.00 42 1014.8
20260504033600 10 229 1.6 6.4 0.00 0.00 0.00 42 1014.9
20260504033116 10 238 1.6 6.4 0.00 0.00 0.00 40 1014.8
20260504032603 10 277 0.0 6.4 0.00 0.00 0.00 41 1014.8
20260504032100 10 234 1.6 4.8 0.00 0.00 0.00 42 1014.8
20260504031605 10 267 1.6 4.8 0.00 0.00 0.00 42 1015.0
20260504031103 10 312 0.0 8.0 0.00 0.00 0.00 41 1014.9
20260504030559 10 0 1.6 8.0 0.00 0.00 0.00 41 1014.9
20260504030100 10 0 0.0 6.4 0.00 0.00 0.00 40 1014.8
20260504025604 10 0 1.6 6.4 0.00 0.00 0.00 40 1014.8
20260504025100 11 0 1.6 6.4 0.00 0.00 0.00 39 1014.7
20260504024602 10 222 0.0 6.4 0.00 0.00 0.00 40 1014.7
20260504024102 11 235 1.6 6.4 0.00 0.00 0.00 39 1014.7
20260504023559 11 205 1.6 4.8 0.00 0.00 0.00 39 1014.8
20260504023100 11 204 1.6 4.8 0.00 0.00 0.00 39 1014.8
20260504022601 12 145 0.0 6.4 0.00 0.00 0.00 36 1014.8
20260504022100 12 173 1.6 6.4 0.00 0.00 0.00 35 1014.6
20260504021600 12 207 1.6 4.8 0.00 0.00 0.00 33 1014.6
20260504021059 12 229 1.6 3.2 0.00 0.00 0.00 34 1014.4
20260504020601 12 261 0.0 1.6 0.00 0.00 0.00 35 1014.5
20260504020058 12 261 0.0 1.6 0.00 0.00 0.00 35 1014.4
20260504015600 12 261 0.0 3.2 0.00 0.00 0.00 35 1014.4
20260504015100 12 261 0.0 3.2 0.00 0.00 0.00 35 1014.3
20260504014559 12 261 1.6 3.2 0.00 0.00 0.00 35 1014.3
20260504014059 11 261 1.6 3.2 0.00 0.00 0.00 35 1014.2
20260504013559 11 261 1.6 3.2 0.00 0.00 0.00 36 1014.2
20260504013112 11 261 1.6 3.2 0.00 0.00 0.00 37 1014.1
20260504012600 11 261 0.0 3.2 0.00 0.00 0.00 37 1014.0
20260504012103 11 261 0.0 3.2 0.00 0.00 0.00 36 1013.9
20260504011601 11 261 0.0 3.2 0.00 0.00 0.00 36 1013.9
20260504011101 11 0 1.6 3.2 0.00 0.00 0.00 36 1013.9
20260504010559 11 0 0.0 3.2 0.00 0.00 0.00 37 1013.8
20260504005559 11 261 1.6 3.2 0.00 0.00 0.00 37 1013.9
20260504005059 11 263 1.6 4.8 0.00 0.00 0.00 37 1013.9
20260504004623 11 265 1.6 4.8 0.00 0.00 0.00 36 1013.9
20260504004059 11 267 1.6 4.8 0.00 0.00 0.00 36 1013.8
20260504003559 11 267 1.6 4.8 0.00 0.00 0.00 36 1013.8
20260504003102 11 268 1.6 4.8 0.00 0.00 0.00 37 1013.8
20260504002600 11 268 1.6 3.2 0.00 0.00 0.00 37 1013.7
20260504002104 12 268 1.6 4.8 0.00 0.00 0.00 36 1013.8
20260504001608 12 268 1.6 4.8 0.00 0.00 0.00 36 1013.7
20260504001100 12 269 1.6 3.2 0.00 0.00 0.00 37 1013.7
20260504000556 12 279 1.6 4.8 0.00 0.00 0.00 36 1013.7
20260503235555 12 241 1.6 4.8 0.00 0.00 0.00 36 1013.7
20260503235058 12 281 1.6 6.4 0.00 0.00 0.00 35 1013.7
20260503234557 12 292 0.0 8.0 0.00 0.00 0.00 35 1013.7
20260503234100 12 0 1.6 9.7 0.00 0.00 0.00 34 1013.6
20260503233600 12 257 3.2 11.3 0.00 0.00 0.00 34 1013.5
20260503233057 13 290 1.6 11.3 0.00 0.00 0.00 34 1013.5
20260503232556 13 285 3.2 11.3 0.00 0.00 0.00 34 1013.5
20260503232059 13 227 1.6 11.3 0.00 0.00 0.00 35 1013.5
20260503231558 13 265 1.6 11.3 0.00 0.00 0.00 34 1013.4
20260503231059 13 311 1.6 6.4 0.00 0.00 0.00 34 1013.3
20260503230559 13 287 1.6 9.7 0.00 0.00 0.00 34 1013.4
20260503230110 13 302 1.6 9.7 0.00 0.00 0.00 36 1013.3
20260503225556 13 250 3.2 6.4 0.00 0.00 0.00 34 1013.3
20260503225057 13 296 3.2 11.3 0.00 0.00 0.00 34 1013.2
20260503224559 13 315 3.2 11.3 0.00 0.00 0.00 33 1013.2
20260503224056 13 310 1.6 11.3 0.00 0.00 0.00 35 1013.3
20260503223556 14 237 1.6 11.3 0.00 0.00 0.00 33 1013.3
20260503223059 14 290 0.0 11.3 0.00 0.00 0.00 33 1013.2
20260503222559 14 302 4.8 11.3 0.00 0.00 0.00 32 1013.4
20260503222100 14 309 4.8 11.3 0.00 0.00 0.00 33 1013.3
20260503221558 14 288 3.2 12.9 0.00 0.00 0.00 33 1013.3
20260503221103 14 355 3.2 17.7 0.00 0.00 0.00 32 1013.3
20260503220559 14 303 6.4 17.7 0.00 0.00 0.00 32 1013.4
20260503215559 14 325 3.2 9.7 0.00 0.00 0.00 34 1013.5
20260503215058 14 292 4.8 11.3 0.00 0.00 0.00 32 1013.4
20260503214607 14 236 1.6 11.3 0.00 0.00 0.00 33 1013.4
20260503214059 15 328 1.6 17.7 0.00 0.00 0.00 31 1013.4
20260503213559 15 277 3.2 17.7 0.00 0.00 0.00 34 1013.5
20260503213102 15 266 3.2 9.7 0.00 0.00 0.00 31 1013.5
20260503212559 15 317 1.6 16.1 0.00 0.00 0.00 37 1013.6
20260503212059 14 116 3.2 16.1 0.00 0.00 0.00 33 1013.6
20260503211605 14 308 4.8 12.9 0.00 0.00 0.00 32 1013.6
20260503211055 14 326 3.2 17.7 0.00 0.00 0.00 34 1013.5
20260503210600 14 267 3.2 17.7 0.00 0.00 0.00 32 1013.6
20260503210100 14 233 6.4 17.7 0.00 0.00 0.00 33 1013.7
20260503205559 15 299 4.8 17.7 0.00 0.00 0.00 33 1013.6
20260503205100 15 346 6.4 14.5 0.00 0.00 0.00 31 1013.6
20260503204600 15 26 4.8 14.5 0.00 0.00 0.00 35 1013.6
20260503204059 15 326 3.2 14.5 0.00 0.00 0.00 31 1013.7
20260503203600 15 294 6.4 14.5 0.00 0.00 0.00 31 1013.8
20260503203106 15 336 3.2 8.0 0.00 0.00 0.00 32 1013.9
20260503202601 15 5 3.2 12.9 0.00 0.00 0.00 33 1013.8
20260503202100 15 327 1.6 22.5 0.00 0.00 0.00 33 1013.7
20260503201600 15 352 4.8 22.5 0.00 0.00 0.00 30 1013.8
20260503201103 15 281 4.8 22.5 0.00 0.00 0.00 31 1014.0
20260503200601 15 350 3.2 9.7 0.00 0.00 0.00 35 1014.0
20260503200059 15 325 4.8 14.5 0.00 0.00 0.00 35 1014.0
20260503195600 15 315 3.2 14.5 0.00 0.00 0.00 33 1014.2
20260503195100 15 327 6.4 17.7 0.00 0.00 0.00 31 1014.2
20260503194604 14 285 4.8 17.7 0.00 0.00 0.00 39 1014.4
20260503194100 14 302 9.7 17.7 0.00 0.00 0.00 33 1014.3
20260503193600 15 5 1.6 14.5 0.00 0.00 0.00 36 1014.5
20260503193101 15 153 3.2 17.7 0.00 0.00 0.00 33 1014.5
20260503192559 13 280 6.4 19.3 0.00 0.00 0.00 35 1014.7
20260503192059 14 258 6.4 19.3 0.00 0.00 0.00 35 1014.7
20260503191609 14 271 4.8 16.1 0.00 0.00 0.00 38 1014.8
20260503191059 13 340 6.4 16.1 0.00 0.00 0.00 35 1014.9
20260503190559 14 285 4.8 14.5 0.00 0.00 0.00 35 1014.9
20260503190100 14 319 6.4 17.7 0.00 0.00 0.00 36 1014.9
20260503185600 13 313 6.4 17.7 0.00 0.00 0.00 39 1015.0
20260503185100 13 312 8.0 17.7 0.00 0.00 0.00 36 1015.1
20260503184609 14 304 4.8 17.7 0.00 0.00 0.00 34 1015.2
20260503184100 13 240 4.8 17.7 0.00 0.00 0.00 37 1015.2
20260503183559 13 205 6.4 17.7 0.00 0.00 0.00 40 1015.1
20260503183103 13 360 3.2 16.1 0.00 0.00 0.00 38 1015.1
20260503182603 12 288 4.8 19.3 0.00 0.00 0.00 37 1015.1
20260503182059 12 324 8.0 19.3 0.00 0.00 0.00 38 1015.3
20260503181603 13 281 9.7 19.3 0.00 0.00 0.00 39 1015.4
20260503181100 13 306 11.3 17.7 0.00 0.00 0.00 36 1015.3
20260503180601 13 319 4.8 17.7 0.00 0.00 0.00 35 1015.3
20260503180104 13 338 3.2 17.7 0.00 0.00 0.00 38 1015.3
20260503175600 13 275 6.4 17.7 0.00 0.00 0.00 40 1015.3
20260503175059 13 294 6.4 17.7 0.00 0.00 0.00 37 1015.4
20260503174618 13 299 4.8 17.7 0.00 0.00 0.00 38 1015.3
20260503174059 13 317 8.0 17.7 0.00 0.00 0.00 37 1015.4
20260503173559 12 292 4.8 19.3 0.00 0.00 0.00 39 1015.5
20260503173107 12 88 6.4 19.3 0.00 0.00 0.00 38 1015.5
20260503172601 12 313 3.2 12.9 0.00 0.00 0.00 39 1015.6
20260503172100 12 171 6.4 25.7 0.00 0.00 0.00 43 1015.6
20260503171604 11 221 4.8 25.7 0.00 0.00 0.00 39 1015.5
20260503171100 11 302 6.4 20.9 0.00 0.00 0.00 42 1015.7
20260503170600 10 313 9.7 19.3 0.00 0.00 0.00 42 1015.7
20260503170103 10 291 4.8 14.5 0.00 0.00 0.00 43 1015.7
20260503160115 10 292 8.0 17.7 0.00 0.00 0.00 42 1016.2
20260503150559 9 294 9.7 27.4 0.00 0.00 0.00 45 1016.4
20260503150104 8 328 14.5 27.4 0.00 0.00 0.00 46 1016.4
20260503140110 7 323 9.7 27.4 0.00 0.00 0.00 53 1016.5